Regional Weather Roundup
Issued by NWS

Home | Current Version | Previous Version | Text Only | Print | Product List | Glossary On
Versions: 1 2 3 4 5 6 7 8 9 10 11 12 13 14 15 16 17 18 19 20 21 22 23 24 25 26 27 28 29 30 31 32 33 34 35 36 37 38 39 40 41 42 43 44 45 46 47 48 49 50
000
ASUS43 KOAX 261710
RWRNE

WEATHER ROUNDUP FOR NEBRASKA
NATIONAL WEATHER SERVICE OMAHA NE
1100 AM CST WED NOV 26 2014

NOTES: SATELLITE DATA IS BEING USED TO AUGMENT CLOUD COVER ABOVE
       12000 FEET.
       "FAIR" INDICATES FEW OR NO CLOUDS BELOW 12,000 FEET WITH NO
       SIGNIFICANT WEATHER AND/OR OBSTRUCTIONS TO VISIBILITY.

  * THESE STATIONS DO NOT REPORT WEATHER SUCH AS RAIN...SNOW OR FOG.

NEZ001>004-019>022-054>056-261800-
NEBRASKA PANHANDLE

CITY           SKY/WX    TMP DP  RH WIND       PRES   REMARKS
SCOTTSBLUFF    LGT SNOW  30  28  92 NW7       30.25R VSB 1   WCI  23
ALLIANCE       LGT SNOW  28  22  78 CALM      30.24R
CHADRON        CLOUDY    37  21  52 CALM      30.27R
KIMBALL        LGT SNOW  27  26  94 NW5       30.20R WCI  22
SIDNEY         MIX PCPN  27  24  89 CALM      30.24S
$$

NEZ057>060-069>072-079>082-261800-
SOUTHWEST NEBRASKA

CITY           SKY/WX    TMP DP  RH WIND       PRES   REMARKS
NORTH PLATTE   CLOUDY    31  19  61 N17G25    30.26R WCI  19
IMPERIAL       CLOUDY    32  19  58 N18       30.27R WCI  20
LEXINGTON      PTSUNNY   32  21  65 N28       30.25R WCI  18
MCCOOK         CLOUDY    34  19  54 N21G29    30.26R WCI  22
OGALLALA       CLOUDY    33  23  67 NW10      30.27R WCI  24
$$

NEZ005>010-023>029-035>040-094-261800-
NORTH CENTRAL NEBRASKA

CITY           SKY/WX    TMP DP  RH WIND       PRES   REMARKS
VALENTINE      CLOUDY    24  17  74 NE10      30.29R WCI  14
AINSWORTH      CLOUDY    23  18  81 N15       30.28R WCI  10
BROKEN BOW     CLOUDY    26  19  74 N25       30.24R WCI  11
O`NEILL        CLOUDY    24  20  87 NW24G31   30.25R WCI   8
ORD            CLOUDY    25  17  72 NW23G32   30.24R WCI  10
THEDFORD       CLOUDY    27  22  82 N14G20    30.27R WCI  15
$$

NEZ041-046>049-061>064-073>077-083>087-261800-
SOUTH CENTRAL NEBRASKA

CITY           SKY/WX    TMP DP  RH WIND       PRES   REMARKS
GRAND ISLAND   CLOUDY    28  19  69 N23G38    30.21R WCI  14
AURORA         CLOUDY    28  20  70 N26G33    30.19R WCI  13
HASTINGS       CLOUDY    29  19  66 N29G38    30.19R WCI  14
HEBRON         CLOUDY    32  22  66 N25G32    30.16R WCI  18
HOLDREGE       PTSUNNY   33  20  60 N21G33    30.22R WCI  20
KEARNEY *      CLOUDY    28  18  64 W26G35    30.22R WCI  13
YORK           CLOUDY    28  21  74 N22G30    30.16R WCI  15
$$

NEZ011>018-030>034-042>045-261800-
NORTHEAST NEBRASKA

CITY           SKY/WX    TMP DP  RH WIND       PRES   REMARKS
NORFOLK        CLOUDY    24  19  81 NW24G31   30.18R WCI   8
ALBION         CLOUDY    25  18  72 N22G30    30.19R WCI  11
BLAIR          CLOUDY    32  27  81 NW24G39   30.05R WCI  19
COLUMBUS *     CLOUDY    27  18  69 N24G31    30.17R WCI  12
FREMONT        CLOUDY    32  26  79 N25G33    30.11R WCI  19
TEKAMAH        CLOUDY    32  26  78 N29G37    30.10R WCI  18
WAYNE          FLURRIES  26  22  84 N23G30    30.17R WCI  11
$$

NEZ050>053-065>068-078-088>093-261800-
SOUTHEAST NEBRASKA

CITY           SKY/WX    TMP DP  RH WIND       PRES   REMARKS
LINCOLN        CLOUDY    31  24  75 NW29G37   30.12R WCI  16
OMAHA EPPLEY   FLURRIES  33  28  81 N23G32    30.06R WCI  21
BEATRICE       CLOUDY    31  25  79 NW29G38   30.12R WCI  16
FALLS CITY     CLOUDY    37  30  75 NW24G38   30.02R WCI  26
NEBRASKA CITY  CLOUDY    34  30  85 NW20G31   30.03R WCI  22
PLATTSMOUTH    CLOUDY    35  29  81 NW24G33   30.02R WCI  22
$$

NEZ044-045-051>053-067-261800-
OMAHA AREA

CITY           SKY/WX    TMP DP  RH WIND       PRES   REMARKS
OMAHA EPPLEY   FLURRIES  33  28  81 N23G32    30.06R WCI  21
BLAIR          CLOUDY    32  27  81 NW24G39   30.05R WCI  19
FREMONT        CLOUDY    32  26  79 N25G33    30.11R WCI  19
MILLARD        CLOUDY    34  28  79 NW16G30   30.06R WCI  24
OFFUTT AFB     CLOUDY    35  28  76 N23G36    30.04R WCI  23
PLATTSMOUTH    CLOUDY    35  29  81 NW24G33   30.02R WCI  22
WAHOO          CLOUDY    32  26  78 N33G39    30.09R WCI  17
$$



USA.gov is the U.S. government's official web portal to all federal, state and local government web resources and services.